Weather Roundup
Issued by NWS Chicago, IL

Home | Current Version | Previous Version | Text Only | Print | Product List | Glossary On
Versions: 1 2 3 4 5 6 7 8 9 10 11 12 13 14 15 16 17 18 19 20 21 22 23 24 25 26 27 28 29 30 31 32 33 34 35 36 37 38 39 40 41 42 43 44 45 46 47 48 49 50
648
NZUS59 KLOT 291108
HRRLOT

CHICAGO AREA WEATHER ROUNDUP
NATIONAL WEATHER SERVICE CHICAGO/ROMEOVILLE IL
600 AM CDT WED MAR 29 2017

NOTE: "FAIR" INDICATES FEW OR NO CLOUDS BELOW 12,000 FEET WITH NO
SIGNIFICANT WEATHER AND/OR OBSTRUCTIONS TO VISIBILITY.

* THESE STATIONS ARE NOT UNDER NWS QUALITY CONTROL. THEY ALSO MAY NOT
  REPORT WEATHER SUCH AS PRECIPITATION OR FOG.

ILZ005-006-012>014-019>023-291200-
NORTHEAST ILLINOIS

CITY           SKY/WX    TMP DP  RH WIND       PRES   REMARKS
OHARE          FOG       35  33  92 NE8       30.23R VSB 3/4 WCI  29
MIDWAY         CLOUDY    37  36  96 NE9       30.23R FOG
AURORA         CLOUDY    38  36  92 NE12      30.22R FOG
LANSING*       FOG       35  35 100 NE6       30.22R VSB 1/2 WCI  30
JOLIET*        CLOUDY    38  37  98 NE7       30.22R FOG
WAUKEGAN       FOG       31  31 100 N5        30.24R VSB 1/4 WCI  26
DUPAGE AIRPORT CLOUDY    35  35 100 E12       30.22R FOG     WCI  27
WHEELING       CLOUDY    33  33 100 E3        30.25R FOG
KANKAKEE*      CLOUDY    37  36  93 NE7       30.21R FOG
MORRIS*        CLOUDY    38  37  94 E6        30.20S FOG
LEWIS AIRPORT* CLOUDY    36  36 100 E8        30.22R FOG
NORTHERLY ISL    N/A     34  33  96 MISG        N/A
$$

WIZ051-052-058>065-066-070>072-291200-
SOUTHEAST WISCONSIN

CITY           SKY/WX    TMP DP  RH WIND       PRES   REMARKS
MILWAUKEE      FOG       33  30  88 N5        30.26R VSB 1/4 WCI  29
KENOSHA*       FOG       31  30  96 NE5       30.26R VSB 1/4 WCI  26
RACINE*        FOG       30  28  92 N6        30.27R VSB 1/4 WCI  24
WAUKESHA       CLEAR     28  28 100 CALM      30.27R
WEST BEND      CLEAR     30  30 100 CALM      30.26S
$$

INZ001>003-010>013-019-020-291200-
NORTHWEST INDIANA

CITY           SKY/WX    TMP DP  RH WIND       PRES   REMARKS
GARY*          FOG       36  36 100 NE6       30.23S VSB 1/2
MICHIGAN CITY* NOT AVBL
RENSSELAER*    NOT AVBL
VALPARAISO     CLEAR     36  35  96 NE6       30.22R FOG
$$

LMZ740>746-291200-
SOUTHERN LAKE MICHIGAN

STATION/POSITION TIME  SKY/WX   TEMP WIND        PRES    VSBY
                                AIR  DIR/SP/G
                 (UTC)          (F)  (DEG/KT/KT) (MB)    (MI)
HARRISON CRIB    1040            34   20/  7/  7   N/A
BURNHAM HARBOR   1100            34   10/  7/ 10   N/A
CALUMET HARBOR   1048            34   20/  8/ 10 1023.1R
BURNS HARBOR     1040            36   70/  8/ 11 1024.0R
MICHIGAN CITY    1040            37   50/  5/  6   N/A
$$

ABBREVIATIONS USED IN REMARKS
   TC - TEMPERATURE IN CELSIUS
  WCI - WIND CHILL INDEX
   HX - HEAT INDEX
  VSB - VISIBILITY
$$




USA.gov is the U.S. government's official web portal to all federal, state and local government web resources and services.